Satellite: MET-3/5 Catalog number: 21655 Epoch time: 12054.81701394 Element set: 343 Inclination: 082.5529 deg RA of node: 232.9741 deg Eccentricity: 0.0012287 Arg of perigee: 246.5923 deg Mean anomaly: 113.3871 deg Mean motion: 13.17037448 rev/day Decay rate: 5.1e-07 rev/day^2 Epoch rev: 98684 Checksum: 306
Satellite: MET-2/21 Catalog number: 22782 Epoch time: 12053.74682537 Element set: 0346 Inclination: 082.5495 deg RA of node: 124.1128 deg Eccentricity: 0.0024041 Arg of perigee: 114.6046 deg Mean anomaly: 245.7638 deg Mean motion: 13.83676646 rev/day Decay rate: 6.0e-08 rev/day^2 Epoch rev: 93320 Checksum: 297
Satellite: OKEAN-4 Catalog number: 23317 Epoch time: 12053.91024837 Element set: 0869 Inclination: 082.5428 deg RA of node: 138.9581 deg Eccentricity: 0.0022088 Arg of perigee: 016.9112 deg Mean anomaly: 343.2837 deg Mean motion: 14.83593662 rev/day Decay rate: 6.79e-06 rev/day^2 Epoch rev: 93771 Checksum: 328
Satellite: NOAA-14 Catalog number: 23455 Epoch time: 12054.54709099 Element set: 797 Inclination: 098.8336 deg RA of node: 139.4717 deg Eccentricity: 0.0008737 Arg of perigee: 289.4135 deg Mean anomaly: 070.6094 deg Mean motion: 14.13878133 rev/day Decay rate: 7.4e-07 rev/day^2 Epoch rev: 88459 Checksum: 349
Satellite: NOAA-15 Catalog number: 25338 Epoch time: 12054.39987089 Element set: 156 Inclination: 098.6816 deg RA of node: 042.4452 deg Eccentricity: 0.0011608 Arg of perigee: 083.4118 deg Mean anomaly: 276.8382 deg Mean motion: 14.25032478 rev/day Decay rate: 1.21e-06 rev/day^2 Epoch rev: 71650 Checksum: 309
Satellite: RESURS Catalog number: 25394 Epoch time: 12054.82233807 Element set: 21 Inclination: 098.3121 deg RA of node: 049.1246 deg Eccentricity: 0.0000871 Arg of perigee: 174.7608 deg Mean anomaly: 185.3581 deg Mean motion: 14.24274311 rev/day Decay rate: 2.4e-07 rev/day^2 Epoch rev: 70812 Checksum: 264
Satellite: FENGYUN1 Catalog number: 25730 Epoch time: 12053.92587839 Element set: 543 Inclination: 098.8387 deg RA of node: 014.9755 deg Eccentricity: 0.0020447 Arg of perigee: 336.7306 deg Mean anomaly: 023.2931 deg Mean motion: 14.09255858 rev/day Decay rate: 1.369e-05 rev/day^2 Epoch rev: 65837 Checksum: 334
Satellite: OKEAN-0 Catalog number: 25860 Epoch time: 12053.93844567 Element set: 0569 Inclination: 097.9202 deg RA of node: 019.0446 deg Eccentricity: 0.0000464 Arg of perigee: 073.2055 deg Mean anomaly: 286.9199 deg Mean motion: 14.74090685 rev/day Decay rate: 4.07e-06 rev/day^2 Epoch rev: 67759 Checksum: 330
Satellite: NOAA-16 Catalog number: 26536 Epoch time: 12054.37287225 Element set: 640 Inclination: 099.1103 deg RA of node: 094.6446 deg Eccentricity: 0.0011053 Arg of perigee: 049.7856 deg Mean anomaly: 310.4306 deg Mean motion: 14.12708539 rev/day Decay rate: 4.15e-06 rev/day^2 Epoch rev: 58882 Checksum: 300
Satellite: NOAA-17 Catalog number: 27453 Epoch time: 12054.31390027 Element set: 608 Inclination: 098.3494 deg RA of node: 087.0902 deg Eccentricity: 0.0012495 Arg of perigee: 130.7792 deg Mean anomaly: 229.4467 deg Mean motion: 14.24396298 rev/day Decay rate: 1.86e-06 rev/day^2 Epoch rev: 50240 Checksum: 311
Satellite: NOAA-18 Catalog number: 28654 Epoch time: 12054.38344302 Element set: 85 Inclination: 099.0327 deg RA of node: 011.6014 deg Eccentricity: 0.0015027 Arg of perigee: 116.2247 deg Mean anomaly: 244.0486 deg Mean motion: 14.11606379 rev/day Decay rate: -4.9e-07 rev/day^2 Epoch rev: 34836 Checksum: 282
Satellite: NOAA-19 Catalog number: 33591 Epoch time: 12054.36555991 Element set: 274 Inclination: 098.8548 deg RA of node: 355.6384 deg Eccentricity: 0.0014163 Arg of perigee: 349.7124 deg Mean anomaly: 010.3752 deg Mean motion: 14.11296945 rev/day Decay rate: 9.7e-07 rev/day^2 Epoch rev: 15681 Checksum: 328
/EX SB KEPS @ AMSAT $ORB12054.M Orbital Elements 12054.MISC
HR AMSAT ORBITAL ELEMENTS FOR MANNED AND MISCELLANEOUS SATELLITES FROM WA5QGD FORT WORTH,TX February 23, 2012 Send SUBSCRIBE KEPS/UNSUBSCRIBE KEPS to [email protected] only BID: ORB12054.M TO ALL RADIO AMATEURS BT
Satellite: HUBBLE Catalog number: 20580 Epoch time: 12054.06756340 Element set: 948 Inclination: 028.4682 deg RA of node: 176.7224 deg Eccentricity: 0.0003046 Arg of perigee: 274.1397 deg Mean anomaly: 085.8949 deg Mean motion: 15.02204207 rev/day Decay rate: 1.552e-05 rev/day^2 Epoch rev: 99740 Checksum: 300
Satellite: ISS Catalog number: 25544 Epoch time: 12054.95299164 Element set: 69 Inclination: 051.6442 deg RA of node: 334.9734 deg Eccentricity: 0.0020665 Arg of perigee: 078.2958 deg Mean anomaly: 019.4320 deg Mean motion: 15.59228772 rev/day Decay rate: 1.9173e-04 rev/day^2 Epoch rev: 76020 Checksum: 315
Satellite: CO-58 Catalog number: 28895 Epoch time: 12053.85353521 Element set: 0107 Inclination: 097.9338 deg RA of node: 285.0921 deg Eccentricity: 0.0018235 Arg of perigee: 150.4245 deg Mean anomaly: 209.8028 deg Mean motion: 14.60490559 rev/day Decay rate: 5.78e-06 rev/day^2 Epoch rev: 33682 Checksum: 326
Satellite: FALCON Catalog number: 30776 Epoch time: 12053.92233472 Element set: 0304 Inclination: 035.4331 deg RA of node: 260.4072 deg Eccentricity: 0.0001745 Arg of perigee: 061.7876 deg Mean anomaly: 298.3017 deg Mean motion: 15.06663449 rev/day Decay rate: 3.345e-05 rev/day^2 Epoch rev: 27285 Checksum: 286
Satellite: MAST Catalog number: 31126 Epoch time: 12054.58263514 Element set: 391 Inclination: 097.8794 deg RA of node: 072.3727 deg Eccentricity: 0.0094973 Arg of perigee: 107.5255 deg Mean anomaly: 253.6332 deg Mean motion: 14.54038669 rev/day Decay rate: 3.50e-06 rev/day^2 Epoch rev: 25761 Checksum: 309
Satellite: CAPE1 Catalog number: 31130 Epoch time: 12053.76332007 Element set: 402 Inclination: 097.8879 deg RA of node: 068.0628 deg Eccentricity: 0.0102772 Arg of perigee: 122.2903 deg Mean anomaly: 238.8306 deg Mean motion: 14.52776271 rev/day Decay rate: 6.20e-06 rev/day^2 Epoch rev: 25701 Checksum: 274
Satellite: COMPASS Catalog number: 32787 Epoch time: 12053.68438507 Element set: 0231 Inclination: 097.8132 deg RA of node: 117.5382 deg Eccentricity: 0.0016389 Arg of perigee: 079.6177 deg Mean anomaly: 280.6881 deg Mean motion: 14.83535127 rev/day Decay rate: 2.172e-05 rev/day^2 Epoch rev: 20668 Checksum: 320
Satellite: AAUSAT2 Catalog number: 32788 Epoch time: 12053.61014188 Element set: 0223 Inclination: 097.8161 deg RA of node: 117.7884 deg Eccentricity: 0.0016290 Arg of perigee: 080.8331 deg Mean anomaly: 279.4722 deg Mean motion: 14.83815616 rev/day Decay rate: 2.152e-05 rev/day^2 Epoch rev: 20669 Checksum: 303
Satellite: DO-64 Catalog number: 32789 Epoch time: 12053.82840591 Element set: 0238 Inclination: 097.8267 deg RA of node: 119.6197 deg Eccentricity: 0.0015881 Arg of perigee: 078.1035 deg Mean anomaly: 282.1933 deg Mean motion: 14.84982575 rev/day Decay rate: 3.369e-05 rev/day^2 Epoch rev: 20675 Checksum: 351
Satellite: CO-66 Catalog number: 32791 Epoch time: 12053.83422156 Element set: 0225 Inclination: 097.8173 deg RA of node: 117.5118 deg Eccentricity: 0.0017002 Arg of perigee: 078.9051 deg Mean anomaly: 281.4014 deg Mean motion: 14.83034006 rev/day Decay rate: 1.340e-05 rev/day^2 Epoch rev: 20664 Checksum: 268
Satellite: RS-30 Catalog number: 32953 Epoch time: 12054.83554269 Element set: 548 Inclination: 082.5044 deg RA of node: 006.2416 deg Eccentricity: 0.0017926 Arg of perigee: 194.4922 deg Mean anomaly: 165.5651 deg Mean motion: 12.43021174 rev/day Decay rate: 1.0e-07 rev/day^2 Epoch rev: 17035 Checksum: 276
Satellite: TACSAT-3 Catalog number: 35001 Epoch time: 12053.48608741 Element set: 0886 Inclination: 040.4479 deg RA of node: 071.9357 deg Eccentricity: 0.0005712 Arg of perigee: 164.3859 deg Mean anomaly: 195.7146 deg Mean motion: 15.75037288 rev/day Decay rate: 1.08243e-03 rev/day^2 Epoch rev: 15613 Checksum: 314
Satellite: PHARMSAT Catalog number: 35002 Epoch time: 12053.47316259 Element set: 804 Inclination: 040.4649 deg RA of node: 076.8989 deg Eccentricity: 0.0006087 Arg of perigee: 297.9978 deg Mean anomaly: 062.0228 deg Mean motion: 15.65664785 rev/day Decay rate: 4.7281e-04 rev/day^2 Epoch rev: 15608 Checksum: 338
Satellite: METEOR-M Catalog number: 35865 Epoch time: 12054.72730493 Element set: 170 Inclination: 098.6705 deg RA of node: 111.1214 deg Eccentricity: 0.0003122 Arg of perigee: 035.6459 deg Mean anomaly: 324.4926 deg Mean motion: 14.21855837 rev/day Decay rate: -2.3e-07 rev/day^2 Epoch rev: 12633 Checksum: 274
Satellite: RS-38 Catalog number: 35869 Epoch time: 12054.83529238 Element set: 179 Inclination: 098.6672 deg RA of node: 111.2407 deg Eccentricity: 0.0005133 Arg of perigee: 031.9577 deg Mean anomaly: 328.1910 deg Mean motion: 14.22055333 rev/day Decay rate: 2.4e-07 rev/day^2 Epoch rev: 12636 Checksum: 296
Satellite: JUGNU Catalog number: 37839 Epoch time: 12053.84326970 Element set: 93 Inclination: 019.9615 deg RA of node: 336.9786 deg Eccentricity: 0.0019482 Arg of perigee: 034.5113 deg Mean anomaly: 325.6540 deg Mean motion: 14.12027202 rev/day Decay rate: 6.19e-06 rev/day^2 Epoch rev: 1892 Checksum: 297
Satellite: SRMSAT Catalog number: 37841 Epoch time: 12053.95332316 Element set: 0096 Inclination: 019.9742 deg RA of node: 338.9476 deg Eccentricity: 0.0011707 Arg of perigee: 003.8865 deg Mean anomaly: 356.1630 deg Mean motion: 14.10116249 rev/day Decay rate: 2.64e-06 rev/day^2 Epoch rev: 01891 Checksum: 292
Satellite: RAX-2 Catalog number: 37853 Epoch time: 12053.94856459 Element set: 0114 Inclination: 101.7132 deg RA of node: 041.7547 deg Eccentricity: 0.0250908 Arg of perigee: 319.1716 deg Mean anomaly: 039.0906 deg Mean motion: 14.78937030 rev/day Decay rate: 6.129e-05 rev/day^2 Epoch rev: 01736 Checksum: 303
